Vorticity
9 7 7 6 1 2 -0 0 3 -2 -1 2 3 2 0 3 3 5 8 4 4 6 4 6 1 2 5 -0 0 1 5 8 2 4 3 5 5 2 1 4 4 4 13 12 11 12 9 7 6
5 7 8 5 8 9 4 -3 3 1 -0 2 1 1 -1 0 5 2 6 6 5 4 5 3 4 7 3 0 -0 6 4 3 4 4 5 4 4 5 4 -1 13 14 12 10 8 7 7 7 7
3 3 6 7 6 5 8 9 1 3 5 -2 3 3 1 -1 1 5 3 7 5 6 6 4 5 5 2 1 -0 8 3 4 4 4 3 2 3 3 7 13 10 9 7 7 7 5 4 3 2
5 3 3 3 7 7 5 5 13 2 1 2 -2 1 1 -1 3 -1 -0 7 6 6 6 4 3 2 1 1 2 2 4 4 3 2 2 -0 5 6 12 9 7 6 8 6 4 4 2 2 2
6 7 3 2 3 5 7 10 7 7 5 2 3 -0 -1 -0 2 2 1 3 9 6 5 4 4 2 5 2 7 2 5 4 2 3 2 3 3 6 12 11 6 5 6 6 3 2 1 2 3
18 5 5 7 3 2 3 4 8 7 5 4 1 4 3 -0 1 1 1 2 8 7 7 6 4 6 3 1 4 3 4 3 3 3 3 3 3 -0 9 9 6 5 6 5 2 2 2 2 4
10 16 11 4 7 3 1 4 5 12 6 6 8 -0 3 -2 1 2 0 3 4 9 8 7 5 4 4 2 4 2 3 3 3 3 2 4 3 0 9 9 6 5 5 4 2 2 4 4 4
17 4 11 14 5 6 4 4 7 6 6 2 6 2 2 4 2 0 2 2 3 8 8 7 6 4 4 3 3 3 3 3 3 3 3 5 4 7 6 9 7 4 4 2 2 5 4 5 6
16 11 10 11 15 -1 3 1 14 4 6 2 4 9 9 3 2 1 4 5 4 4 11 8 5 6 4 3 2 4 3 4 3 4 3 4 6 7 8 7 6 4 2 3 3 5 4 6 5
16 17 15 11 10 15 5 8 7 7 1 -2 6 2 8 5 4 3 3 3 1 4 11 10 6 6 4 3 2 3 4 4 3 3 3 4 6 6 4 9 6 4 2 3 3 5 5 6 3
9 21 22 15 8 11 3 15 0 8 3 6 6 8 11 7 5 1 -1 1 5 2 10 10 6 6 4 3 3 3 4 4 4 3 3 5 7 6 6 6 6 5 4 3 5 6 5 6 6
15 24 30 24 12 11 14 22 9 7 6 4 7 4 10 7 4 3 1 3 6 8 9 10 7 5 5 4 4 4 5 4 4 4 4 7 6 6 4 7 7 6 4 3 4 8 6 4 9
12 21 43 31 16 9 24 7 15 6 9 4 7 7 7 6 3 2 1 4 6 8 10 7 6 5 4 4 5 4 5 4 4 4 5 5 6 3 3 7 8 5 4 3 5 9 6 4 9
13 14 4 35 28 12 21 15 11 15 11 5 5 8 10 6 4 0 3 3 7 8 10 6 7 5 4 4 4 5 5 4 3 4 5 4 5 5 4 7 8 6 4 3 6 10 9 6 7
3 7 2 15 27 19 18 12 21 13 13 8 3 6 15 5 3 2 2 3 6 6 8 6 6 5 4 4 5 4 4 4 4 5 5 5 4 3 3 6 7 7 4 3 6 10 11 9 5
1 14 6 27 35 19 12 22 19 13 3 8 20 5 16 7 5 2 2 4 7 7 7 5 5 6 4 4 4 4 3 3 5 4 5 5 5 4 4 5 8 7 4 5 7 10 10 14 10
17 21 16 16 21 12 9 22 22 24 6 4 11 10 14 7 5 3 3 4 7 7 6 5 6 3 4 2 5 3 3 3 4 3 4 6 6 5 2 6 7 7 4 6 8 10 12 16 16
10 3 10 21 16 26 10 7 40 11 15 12 22 14 11 5 5 3 3 4 7 7 6 5 5 5 4 3 3 3 5 4 2 1 1 5 7 3 4 4 10 5 4 5 8 11 12 14 13
10 9 10 6 20 15 12 20 27 12 6 12 20 6 10 7 5 3 4 4 7 7 5 5 5 4 3 3 3 5 4 2 3 2 2 7 9 0 2 5 8 5 4 6 10 11 11 14 13
29 22 16 18 25 3 16 33 -10 33 3 15 17 11 8 6 5 4 4 5 6 8 4 5 4 4 4 2 3 4 2 0 1 4 5 8 7 1 5 5 10 5 4 7 11 11 8 12 12
15 31 30 21 21 5 0 15 9 37 11 12 10 8 7 8 5 4 5 5 6 7 6 5 4 3 2 3 1 3 5 3 6 4 8 11 4 4 1 9 10 4 5 8 10 12 7 12 13
3 -29 36 30 16 40 11 32 1 17 18 17 13 12 8 6 4 4 6 7 8 5 6 6 3 3 3 3 5 4 0 1 5 6 7 2 2 0 4 8 8 3 6 5 10 11 8 12 12
9 8 31 8 3 2 -5 -1 45 21 12 10 21 8 3 6 3 7 7 7 7 4 6 4 4 3 3 4 3 2 1 3 5 11 -8 5 2 4 6 9 9 4 6 5 9 11 9 9 8
8 6 3 31 -11 6 -3 -3 40 28 13 8 12 6 4 5 4 5 6 6 6 6 7 6 4 4 3 3 5 1 4 9 8 2 7 10 10 8 4 10 9 4 6 3 11 11 10 8 8
10 -17 19 23 1 17 7 8 42 22 12 17 11 3 7 4 6 7 6 8 7 5 7 6 4 4 3 2 3 1 3 1 4 1 4 -1 0 1 6 13 7 4 2 5 13 11 10 8 7
10 3 -13 53 -7 11 17 27 30 15 -10 28 14 6 9 11 7 8 7 9 5 2 3 4 3 3 2 3 2 5 5 2 7 -3 3 5 5 3 11 10 5 5 -1 11 12 10 10 9 7
10 21 5 8 0 33 26 27 -7 29 17 13 10 17 8 10 8 8 7 6 4 3 3 3 3 3 3 5 2 5 10 6 0 -4 -4 7 5 4 13 8 3 -2 5 12 11 12 11 9 8
14 23 8 15 17 13 17 11 4 45 38 8 11 12 6 8 8 7 8 7 8 6 5 4 4 5 5 3 5 9 9 -7 11 3 8 6 6 11 12 4 -1 1 12 11 13 12 10 7 6
15 15 12 8 24 49 18 13 13 -13 48 16 8 11 9 11 8 10 8 7 7 7 7 6 5 3 6 6 11 4 -2 6 4 8 6 5 8 15 9 -1 1 9 10 12 13 9 6 6 6
12 11 6 25 16 -37 24 24 -17 -15 39 17 10 13 10 11 10 9 8 7 7 6 4 5 8 9 9 14 2 -1 8 6 5 5 7 7 14 8 -2 4 7 9 13 11 9 6 6 5 5
Height
5850 5852 5854 5856 5858 5855 5863 5875 5879 5882 5883 5885 5883 5886 5886 5887 5888 5891 5890 5889 5889 5890 5890 5891 5892 5893 5893 5893 5894 5894 5894 5893 5893 5892 5891 5890 5889 5888 5886 5885 5883 5881 5879 5877 5876 5875 5874 5873 5872
5841 5843 5845 5846 5846 5846 5857 5872 5874 5878 5877 5881 5878 5882 5884 5885 5885 5886 5887 5887 5888 5888 5890 5890 5891 5892 5893 5893 5893 5893 5893 5892 5892 5891 5890 5889 5888 5886 5884 5882 5880 5878 5877 5876 5875 5874 5873 5872 5871
5832 5834 5836 5835 5836 5839 5851 5866 5870 5871 5868 5875 5875 5876 5880 5881 5883 5884 5885 5886 5886 5887 5888 5889 5890 5891 5892 5892 5893 5892 5892 5891 5891 5890 5889 5888 5886 5884 5882 5880 5878 5876 5875 5874 5873 5872 5871 5870 5869
5822 5824 5825 5826 5830 5837 5843 5857 5860 5860 5858 5866 5871 5870 5877 5877 5879 5881 5882 5883 5883 5885 5886 5887 5888 5889 5890 5891 5891 5891 5891 5890 5890 5889 5888 5887 5885 5883 5880 5878 5877 5875 5874 5873 5872 5870 5869 5867 5865
5809 5811 5813 5818 5823 5829 5835 5845 5850 5849 5849 5858 5864 5865 5871 5872 5874 5877 5880 5881 5881 5882 5883 5885 5886 5887 5888 5889 5889 5889 5889 5889 5889 5888 5887 5885 5884 5882 5879 5877 5876 5874 5873 5872 5870 5868 5866 5864 5861
5794 5796 5802 5808 5814 5820 5824 5831 5839 5838 5839 5846 5854 5860 5865 5867 5868 5873 5876 5877 5878 5879 5881 5882 5884 5885 5886 5886 5887 5888 5888 5887 5887 5886 5885 5883 5882 5881 5878 5876 5874 5873 5871 5870 5868 5866 5863 5860 5857
5778 5780 5790 5797 5803 5808 5813 5819 5829 5829 5830 5835 5845 5851 5857 5861 5862 5868 5872 5872 5873 5876 5877 5879 5881 5882 5883 5884 5885 5885 5885 5885 5885 5884 5883 5881 5880 5878 5877 5874 5872 5871 5869 5867 5865 5862 5859 5856 5852
5761 5764 5775 5782 5791 5796 5801 5808 5814 5817 5819 5823 5832 5838 5850 5854 5855 5862 5867 5867 5870 5872 5873 5875 5877 5879 5880 5881 5881 5882 5883 5883 5882 5882 5880 5879 5877 5876 5874 5872 5870 5868 5866 5864 5862 5859 5856 5852 5847
5741 5748 5761 5769 5774 5781 5786 5792 5799 5801 5808 5810 5821 5829 5843 5845 5849 5856 5860 5863 5865 5867 5869 5871 5873 5875 5876 5877 5878 5879 5879 5880 5880 5879 5878 5877 5875 5873 5872 5869 5867 5865 5863 5860 5858 5855 5852 5847 5843
5723 5730 5744 5752 5754 5760 5769 5773 5783 5785 5793 5800 5809 5816 5832 5837 5843 5849 5852 5856 5860 5862 5864 5867 5869 5872 5873 5874 5875 5876 5876 5877 5877 5876 5875 5874 5872 5870 5868 5867 5864 5862 5859 5857 5854 5851 5848 5843 5838
5706 5712 5726 5727 5733 5740 5748 5753 5765 5770 5779 5793 5799 5806 5824 5830 5834 5839 5844 5850 5853 5857 5859 5862 5865 5867 5869 5870 5872 5872 5873 5873 5873 5873 5872 5870 5869 5868 5865 5863 5861 5859 5856 5854 5851 5847 5843 5838 5833
5687 5697 5704 5708 5712 5720 5728 5739 5744 5755 5769 5776 5789 5794 5811 5819 5824 5830 5835 5842 5847 5850 5854 5857 5861 5863 5865 5867 5868 5869 5870 5870 5870 5869 5868 5867 5866 5864 5862 5860 5857 5855 5852 5850 5847 5843 5838 5833 5829
5674 5684 5679 5685 5692 5699 5709 5722 5732 5742 5756 5762 5777 5784 5799 5807 5813 5820 5826 5835 5840 5844 5848 5852 5855 5858 5861 5863 5864 5865 5866 5866 5866 5866 5864 5863 5862 5861 5858 5856 5854 5851 5849 5846 5843 5839 5834 5830 5826
5667 5668 5669 5671 5676 5685 5694 5706 5718 5731 5740 5750 5764 5778 5790 5797 5805 5812 5819 5828 5833 5837 5842 5846 5850 5853 5856 5858 5860 5861 5862 5862 5863 5862 5861 5859 5858 5857 5854 5852 5850 5848 5845 5841 5838 5835 5830 5826 5823
5655 5656 5657 5661 5668 5674 5680 5691 5705 5724 5723 5736 5750 5769 5782 5789 5797 5803 5812 5819 5824 5829 5836 5840 5845 5848 5851 5854 5856 5857 5858 5858 5859 5858 5857 5855 5854 5852 5850 5847 5845 5843 5840 5837 5834 5830 5826 5822 5819
5644 5645 5648 5658 5658 5666 5668 5678 5697 5716 5712 5725 5738 5758 5772 5780 5789 5796 5805 5811 5817 5823 5829 5834 5839 5843 5846 5849 5851 5852 5853 5854 5854 5853 5852 5850 5849 5848 5845 5843 5840 5838 5835 5832 5829 5825 5820 5817 5814
5633 5636 5640 5641 5646 5654 5656 5666 5688 5702 5705 5714 5729 5749 5763 5772 5781 5789 5797 5805 5811 5817 5823 5828 5833 5838 5841 5844 5846 5847 5848 5849 5849 5848 5847 5846 5844 5843 5841 5837 5835 5833 5830 5826 5824 5820 5815 5811 5808
5625 5627 5633 5637 5641 5643 5648 5656 5676 5687 5695 5705 5722 5740 5753 5764 5775 5783 5791 5798 5805 5811 5817 5823 5827 5832 5835 5838 5841 5842 5843 5844 5844 5843 5842 5841 5839 5837 5835 5832 5830 5827 5824 5821 5817 5814 5809 5804 5801
5619 5623 5626 5629 5631 5634 5642 5649 5667 5676 5684 5697 5716 5730 5742 5754 5766 5775 5783 5791 5798 5805 5812 5817 5822 5826 5830 5833 5835 5837 5838 5839 5838 5837 5836 5836 5834 5832 5829 5827 5824 5821 5818 5815 5811 5808 5803 5799 5796
5614 5616 5620 5623 5624 5629 5638 5645 5660 5664 5676 5692 5705 5720 5732 5745 5757 5767 5776 5785 5793 5799 5805 5811 5816 5821 5825 5827 5830 5832 5833 5833 5833 5832 5831 5829 5828 5826 5823 5821 5818 5815 5812 5809 5806 5801 5797 5793 5790
5612 5613 5616 5620 5621 5624 5632 5641 5645 5655 5670 5684 5697 5711 5724 5739 5752 5761 5771 5780 5787 5794 5800 5805 5810 5815 5818 5822 5824 5826 5827 5827 5827 5826 5825 5823 5822 5820 5817 5814 5812 5809 5806 5803 5799 5795 5791 5787 5783
5611 5612 5616 5618 5621 5625 5630 5637 5641 5650 5662 5674 5688 5703 5716 5729 5742 5753 5764 5774 5781 5788 5794 5800 5805 5809 5812 5816 5818 5821 5821 5821 5821 5820 5819 5818 5816 5814 5811 5808 5805 5802 5799 5795 5792 5788 5784 5780 5777
5612 5612 5614 5617 5621 5624 5626 5634 5639 5647 5657 5670 5685 5700 5712 5724 5737 5749 5759 5767 5774 5782 5789 5794 5799 5803 5806 5810 5812 5815 5815 5815 5814 5813 5812 5812 5810 5807 5804 5801 5798 5795 5791 5788 5784 5780 5777 5773 5770
5615 5617 5617 5616 5622 5625 5629 5632 5634 5640 5655 5666 5680 5695 5709 5721 5731 5742 5751 5760 5768 5776 5783 5789 5793 5797 5801 5804 5806 5808 5809 5809 5808 5807 5806 5804 5801 5799 5796 5794 5791 5787 5784 5780 5776 5772 5768 5765 5761
5619 5620 5620 5621 5621 5624 5626 5628 5635 5648 5652 5664 5679 5693 5706 5717 5727 5738 5748 5757 5766 5773 5778 5783 5787 5791 5795 5798 5800 5802 5802 5802 5801 5800 5798 5796 5794 5791 5789 5786 5783 5780 5776 5772 5768 5763 5759 5756 5752
5622 5621 5621 5619 5621 5625 5623 5624 5631 5642 5650 5662 5677 5691 5703 5714 5724 5734 5744 5753 5760 5767 5773 5778 5782 5785 5789 5791 5794 5795 5795 5794 5794 5792 5791 5788 5786 5783 5781 5777 5774 5771 5767 5763 5759 5755 5750 5747 5743
5622 5621 5622 5622 5624 5624 5624 5628 5634 5641 5648 5655 5668 5684 5697 5710 5721 5730 5739 5747 5755 5762 5768 5772 5776 5780 5782 5785 5787 5787 5788 5787 5786 5784 5783 5780 5778 5775 5772 5769 5766 5762 5758 5754 5750 5745 5741 5737 5733
5622 5622 5622 5622 5623 5624 5625 5630 5635 5641 5649 5657 5666 5681 5696 5707 5717 5726 5735 5743 5750 5756 5762 5767 5770 5774 5776 5778 5780 5780 5780 5779 5778 5776 5774 5771 5768 5766 5763 5760 5757 5753 5749 5744 5739 5735 5731 5727 5723
5622 5623 5623 5624 5623 5625 5628 5633 5637 5639 5650 5661 5671 5682 5694 5705 5715 5723 5732 5739 5745 5751 5757 5761 5765 5768 5770 5772 5772 5773 5772 5771 5769 5767 5765 5762 5759 5756 5754 5751 5746 5742 5738 5733 5728 5724 5720 5715 5711
5622 5622 5622 5624 5624 5622 5625 5634 5637 5642 5647 5658 5670 5681 5693 5702 5712 5720 5727 5734 5741 5747 5751 5755 5759 5762 5764 5765 5766 5765 5764 5763 5760 5758 5756 5753 5750 5747 5745 5740 5735 5731 5726 5721 5717 5713 5708 5703 5698